Location: Laura�t
(43.9341°N, 0.2497°E)
Time: 00:14:42
(UTC+00:00)

Cosmos 1943 Rocket - Pass Details

Date: 03 March 2021
Orbit: 811 x 844 km, 71.0° (Epoch: 17 April)

Event Time Altitude Azimuth Distance (km) Brightness Sun altitude
Rises 20:44:06 0° 344° (NNW) 3,413 5.9 -31.5°
Reaches altitude 10° 20:47:27 10° 4° (N) 2,473 4.8 -32.0°
Enters shadow 20:48:41 14° 15° (NNE) 2,216 4.4 -32.2°
